Location: Irma
(52.9170°N, 111.2330°W)
Time: 04:26:55
(UTC-07:00)

Amateur Radio Satellites - All Passes

Search period start: 22 November 2014 03:56
Search period end: 23 November 2014 03:56
Location: Irma, 52.9170°N, 111.2330°W

Satellite Date Start Highest point End Downlink Frequencies (MHz)
Time Altitude Azimuth
MOZHAYETS 4 22 Nov 03:57:36 04:02:05 54° 69° (ENE) 04:06:36
ISS 22 Nov 04:00:01 04:03:18 67° 173° (S) 04:06:35 145.825
ITAMSAT 1 22 Nov 04:04:59 04:09:43 36° 298° (WNW) 04:14:25 435.822/435.867
PCSat 22 Nov 04:06:29 04:11:35 39° 36° (NE) 04:16:39 145.827
Gurwin Techsat 1B 22 Nov 04:11:01 04:16:09 50° 294° (WNW) 04:21:16 435.225
STRAND 1 22 Nov 04:14:14 04:16:54 14° 48° (NE) 04:19:33 437.568
YUBILEINY 22 Nov 04:21:37 04:30:20 62° 288° (WNW) 04:39:03 435.215
RS-15 22 Nov 04:21:42 04:29:09 21° 262° (W) 04:36:49 29.354- 29.394
HORYU 2 22 Nov 04:24:59 04:29:25 62° 290° (WNW) 04:33:51 437.375
AO-7 22 Nov 04:26:00 04:34:04 49° 100° (E) 04:42:05 29.400- 29.500
JAS-2 22 Nov 04:32:09 04:38:06 25° 85° (E) 04:43:34 435.910
BEESAT 3 22 Nov 04:50:28 04:54:36 49° 39° (NE) 04:58:41 437.485
BEESAT 2 22 Nov 05:02:16 05:06:27 56° 40° (NE) 05:10:36 435.950
PRISM 22 Nov 05:09:01 05:13:10 61° 70° (ENE) 05:17:23 437.425
CUTE-I 22 Nov 05:14:41 05:16:31 12° 82° (E) 05:18:20 437.470
AIST 2 22 Nov 05:17:12 05:21:24 46° 37° (NE) 05:25:34 435.215
CUBESAT XI-V 22 Nov 05:26:40 05:31:01 38° 65° (ENE) 05:35:25 437.345
SO-50 22 Nov 05:32:00 05:36:26 52° 126° (SE) 05:41:01 436.795
MOZHAYETS 4 22 Nov 05:35:56 05:39:38 24° 269° (W) 05:43:22
ISS 22 Nov 05:36:35 05:39:51 59° 193° (SSW) 05:43:07 145.825
PCSat 22 Nov 05:49:57 05:55:18 59° 238° (WSW) 06:00:36 145.827
STRAND 1 22 Nov 05:50:05 05:55:10 63° 69° (ENE) 06:00:16 437.568
Gurwin Techsat 1B 22 Nov 05:52:59 05:55:00 12° 315° (NW) 05:57:00 435.225
HORYU 2 22 Nov 06:03:37 06:05:16 12° 310° (NW) 06:06:56 437.375
Cubesat XI-IV 22 Nov 06:09:54 06:14:41 32° 94° (E) 06:19:25 437.490
JAS-2 22 Nov 06:16:31 06:24:09 85° 288° (WNW) 06:30:55 435.910
AO-7 22 Nov 06:18:58 06:27:01 55° 302° (WNW) 06:35:04 29.400- 29.500
YUBILEINY 22 Nov 06:23:20 06:29:21 20° 315° (NW) 06:35:23 435.215
BEESAT 3 22 Nov 06:28:58 06:32:43 31° 239° (WSW) 06:36:25 437.485
AIST 1 22 Nov 06:39:44 06:43:50 36° 70° (ENE) 06:47:52
BEESAT 2 22 Nov 06:40:56 06:44:33 28° 241° (WSW) 06:48:07 435.950
PRISM 22 Nov 06:46:11 06:49:09 18° 270° (W) 06:52:08 437.425
CUTE-I 22 Nov 06:52:20 06:57:40 65° 103° (ESE) 07:02:57 437.470
AIST 2 22 Nov 06:56:02 07:00:00 36° 238° (WSW) 07:03:55 435.215
O/OREOS (USA 219) 22 Nov 07:00:37 07:04:48 39° 110° (ESE) 07:08:59 437.305
CUBESAT XI-V 22 Nov 07:04:12 07:08:31 35° 265° (W) 07:12:52 437.345
SO-50 22 Nov 07:12:48 07:17:10 40° 328° (NNW) 07:21:40 436.795
ISS 22 Nov 07:13:29 07:16:07 22° 212° (SSW) 07:18:44 145.825
STRAND 1 22 Nov 07:30:39 07:34:47 24° 269° (W) 07:38:57 437.568
HO-68 22 Nov 07:35:45 07:38:38 13° 80° (E) 07:41:30 435.675
PCSat 22 Nov 07:35:52 07:37:37 12° 258° (WSW) 07:39:22 145.827
Cubesat XI-IV 22 Nov 07:49:51 07:55:00 49° 294° (WNW) 08:00:06 437.490
JAS-2 22 Nov 08:02:12 08:08:11 27° 311° (NW) 08:13:46 435.910
UNISAT 6 22 Nov 08:12:21 08:13:24 11° 51° (NE) 08:14:28 437.425
AO-7 22 Nov 08:12:28 08:18:10 21° 327° (NNW) 08:23:53 29.400- 29.500
GONETS M04 22 Nov 08:15:04 08:23:10 44° 86° (E) 08:31:20
AIST 1 22 Nov 08:17:34 08:21:27 31° 270° (W) 08:25:17
CANX-2 22 Nov 08:23:15 08:26:09 18° 89° (E) 08:29:04 2200.000
GOMX 1 22 Nov 08:23:42 08:24:52 11° 85° (E) 08:26:02 467.674
AAUSAT CUBESAT 2 22 Nov 08:27:35 08:29:20 12° 86° (E) 08:31:05 437.432
BRITE-PL 22 Nov 08:29:36 08:32:22 17° 89° (E) 08:35:05 437.365/2234.400
CUTE-I 22 Nov 08:33:00 08:37:23 27° 303° (WNW) 08:41:44 437.470
ANTELSAT 22 Nov 08:38:30 08:41:19 17° 57° (ENE) 08:44:08 437.575/2403.000
COMPASS 1 22 Nov 08:39:02 08:41:54 18° 89° (E) 08:44:46 437.405
NANOSAT C BR1 22 Nov 08:39:49 08:41:59 14° 54° (NE) 08:44:09 145.865
O/OREOS (USA 219) 22 Nov 08:40:09 08:44:17 35° 311° (NW) 08:48:25 437.305
QB50P1 22 Nov 08:48:33 08:51:11 16° 56° (NE) 08:53:49 145.935-145.965
DELFI C3 22 Nov 08:55:08 08:55:38 10° 84° (E) 08:56:08 145.870
SO-50 22 Nov 08:55:17 08:58:54 21° 352° (N) 09:02:34 436.795
CUTE 1.7 & AOD 2 22 Nov 08:57:51 09:01:44 33° 95° (E) 09:05:37 437.475
UKube-1 22 Nov 09:07:05 09:09:28 14° 88° (E) 09:11:50 .
CINEMA 3 22 Nov 09:07:15 09:09:39 15° 88° (E) 09:12:04 145.822/145.860
CUBEBUG 2 22 Nov 09:10:40 09:11:35 11° 85° (E) 09:12:31 437.445
POPSAT HIP 1 22 Nov 09:11:46 09:15:12 24° 61° (ENE) 09:18:38 437.405
UWE-3 22 Nov 09:19:16 09:20:42 11° 86° (E) 09:22:08 435.000/436.395/437.385
BUGSAT 1 22 Nov 09:20:13 09:23:42 25° 61° (ENE) 09:27:09 437.445
Oscar 11 22 Nov 09:20:50 09:24:14 22° 91° (E) 09:27:37 145.826/435.025
HO-68 22 Nov 09:20:56 09:28:01 56° 102° (ESE) 09:35:02 435.675
Cubesat XI-IV 22 Nov 09:31:57 09:33:57 12° 316° (NW) 09:35:56 437.490
TIGRISAT 22 Nov 09:34:02 09:38:07 47° 68° (ENE) 09:42:14 435.000
SEEDS 22 Nov 09:36:05 09:40:21 66° 102° (ESE) 09:44:35 437.485
DOVE 4 22 Nov 09:36:44 09:40:40 40° 98° (E) 09:44:37 437.250
DX 1 22 Nov 09:37:29 09:41:13 27° 94° (E) 09:44:55 434.975-435.025
POLYITAN 1 22 Nov 09:41:57 09:46:00 43° 67° (ENE) 09:50:02 437.675
UNISAT 6 22 Nov 09:45:10 09:49:23 61° 71° (ENE) 09:53:37 437.425
QB50P2 22 Nov 09:45:38 09:49:44 46° 68° (ENE) 09:53:49 145.880/145.840
VELOX 1 22 Nov 09:49:52 09:52:09 14° 87° (E) 09:54:26 145.980
DUCHIFAT 1 22 Nov 09:54:22 09:58:32 54° 70° (ENE) 10:02:42 145.980
CANX-2 22 Nov 09:58:18 10:02:33 65° 288° (WNW) 10:06:48 2200.000
GOMX 1 22 Nov 09:59:34 10:03:47 86° 105° (ESE) 10:07:56 467.674
AAUSAT CUBESAT 2 22 Nov 10:01:26 10:05:41 88° 104° (ESE) 10:09:56 437.432
ZACube-1 22 Nov 10:02:12 10:05:41 25° 93° (E) 10:09:12 437.345
AO-7 22 Nov 10:05:19 10:07:54 12° 354° (N) 10:10:29 29.400- 29.500
BRITE-PL 22 Nov 10:07:13 10:11:24 61° 289° (WNW) 10:15:29 437.365/2234.400
GONETS M04 22 Nov 10:11:09 10:19:49 58° 289° (WNW) 10:28:34
AISAT 22 Nov 10:12:38 10:16:07 22° 92° (E) 10:19:35 437.250
NANOSAT C BR1 22 Nov 10:12:57 10:17:14 81° 73° (ENE) 10:21:31 145.865
ANTELSAT 22 Nov 10:13:23 10:17:40 75° 256° (WSW) 10:21:58 437.575/2403.000
COMPASS 1 22 Nov 10:13:52 10:18:05 64° 288° (WNW) 10:22:17 437.405
HUMSAT D 22 Nov 10:16:45 10:20:02 22° 92° (E) 10:23:20 437.325/437.525
QB50P1 22 Nov 10:22:16 10:26:33 83° 255° (WSW) 10:30:51 145.935-145.965
O/OREOS (USA 219) 22 Nov 10:23:58 10:25:04 11° 334° (NNW) 10:26:10 437.305
DELFI C3 22 Nov 10:27:32 10:31:42 77° 103° (ESE) 10:35:50 145.870
50 SAT 22 Nov 10:33:03 10:36:30 26° 94° (E) 10:39:57 437.505
YUBILEINY 22 Nov 10:33:20 10:34:04 10° 25° (NNE) 10:34:48 435.215
CUTE 1.7 & AOD 2 22 Nov 10:33:49 10:37:42 34° 295° (WNW) 10:41:35 437.475
SO-50 22 Nov 10:37:02 10:40:56 24° 16° (NNE) 10:44:53 436.795
FUNcube-1 22 Nov 10:38:05 10:42:11 52° 100° (E) 10:46:20 145.935
CUBEBUG 1 22 Nov 10:41:28 10:44:23 17° 89° (E) 10:47:16 437.445
UKube-1 22 Nov 10:41:52 10:46:15 83° 287° (WNW) 10:50:36 .
CINEMA 3 22 Nov 10:43:15 10:47:25 73° 287° (WNW) 10:51:37 145.822/145.860
CUBEBUG 2 22 Nov 10:44:51 10:49:03 80° 104° (ESE) 10:53:18 437.445
POPSAT HIP 1 22 Nov 10:46:44 10:50:53 49° 260° (W) 10:55:03 437.405
UWE-3 22 Nov 10:53:45 10:57:57 85° 104° (ESE) 11:02:12 435.000/436.395/437.385
BUGSAT 1 22 Nov 10:54:51 10:59:00 48° 260° (W) 11:03:08 437.445
Oscar 11 22 Nov 10:56:29 11:00:43 53° 290° (WNW) 11:04:57 145.826/435.025
HO-68 22 Nov 11:08:57 11:15:36 42° 303° (WNW) 11:22:12 435.675
ESTCUBE 1 22 Nov 11:08:58 11:13:03 31° 95° (E) 11:17:06 437.505/2401.250
TIGRISAT 22 Nov 11:11:43 11:15:09 23° 268° (W) 11:18:35 435.000
SEEDS 22 Nov 11:12:46 11:15:48 19° 301° (WNW) 11:18:50 437.485
DX 1 22 Nov 11:13:30 11:17:39 43° 294° (WNW) 11:21:45 434.975-435.025
DOVE 4 22 Nov 11:14:53 11:18:22 26° 297° (WNW) 11:21:50 437.250
POLYITAN 1 22 Nov 11:18:32 11:22:08 26° 266° (W) 11:25:44 437.675
QB50P2 22 Nov 11:22:24 11:25:53 24° 267° (W) 11:29:24 145.880/145.840
UNISAT 6 22 Nov 11:23:36 11:26:37 19° 270° (W) 11:29:38 437.425
VELOX 1 22 Nov 11:24:56 11:29:25 88° 288° (WNW) 11:33:51 145.980
Oscar 19 22 Nov 11:27:41 11:31:35 23° 56° (NE) 11:35:31 437.125/150
DUCHIFAT 1 22 Nov 11:31:31 11:34:44 21° 269° (W) 11:37:58 145.980
CANX-2 22 Nov 11:36:17 11:37:43 12° 308° (NW) 11:39:09 2200.000
ZACube-1 22 Nov 11:38:18 11:42:16 43° 292° (WNW) 11:46:17 437.345
AAUSAT CUBESAT 2 22 Nov 11:38:23 11:40:48 15° 304° (NW) 11:43:14 437.432
GOMX 1 22 Nov 11:39:03 11:41:22 15° 305° (NW) 11:43:39 467.674
BRITE-PL 22 Nov 11:48:27 11:49:05 10° 310° (NW) 11:49:42 437.365/2234.400
AISAT 22 Nov 11:48:45 11:53:06 54° 291° (WNW) 11:57:24 437.250
NANOSAT C BR1 22 Nov 11:51:25 11:53:43 14° 273° (W) 11:56:01 145.865
COMPASS 1 22 Nov 11:51:44 11:53:03 11° 308° (NW) 11:54:21 437.405
HUMSAT D 22 Nov 11:52:08 11:56:07 47° 291° (WNW) 12:00:07 437.325/437.525
AO-7 22 Nov 11:53:07 11:57:18 15° 21° (NNE) 12:01:30 29.400- 29.500
ANTELSAT 22 Nov 11:54:45 11:55:17 10° 276° (W) 11:55:50 437.575/2403.000
QB50P1 22 Nov 12:01:40 12:03:10 12° 274° (W) 12:04:41 145.935-145.965
DELFI C3 22 Nov 12:03:55 12:06:31 16° 303° (WNW) 12:09:08 145.870
SHINDAISAT 22 Nov 12:05:21 12:07:11 56° 132° (SE) 12:09:03 437.305
50 SAT 22 Nov 12:08:11 12:11:58 38° 293° (WNW) 12:15:44 437.505
ITAMSAT 1 22 Nov 12:11:31 12:15:36 24° 56° (NE) 12:19:41 435.822/435.867
GONETS M04 22 Nov 12:13:14 12:19:02 19° 317° (NW) 12:24:53
FUNcube-1 22 Nov 12:15:03 12:18:18 22° 299° (WNW) 12:21:34 145.935
CUBEBUG 1 22 Nov 12:16:52 12:21:16 69° 288° (WNW) 12:25:36 437.445
SO-50 22 Nov 12:17:38 12:22:24 57° 39° (NE) 12:27:14 436.795
UKube-1 22 Nov 12:19:23 12:21:47 15° 307° (NW) 12:24:10 .
Gurwin Techsat 1B 22 Nov 12:20:47 12:24:22 19° 52° (NE) 12:27:58 435.225
SPROUT 22 Nov 12:21:17 12:25:19 38° 97° (E) 12:29:19 437.525
CINEMA 3 22 Nov 12:22:22 12:23:57 12° 307° (NW) 12:25:32 145.822/145.860
CUBEBUG 2 22 Nov 12:22:43 12:25:17 16° 303° (WNW) 12:27:52 437.445
TISAT 1 22 Nov 12:24:09 12:28:13 44° 99° (E) 12:32:15 437.305
YUBILEINY 22 Nov 12:27:26 12:34:53 30° 56° (NE) 12:42:15 435.215
UWE-3 22 Nov 12:31:33 12:33:59 15° 304° (NW) 12:36:26 435.000/436.395/437.385
ESTCUBE 1 22 Nov 12:45:46 12:50:02 40° 294° (WNW) 12:54:16 437.505/2401.250
AUBIESAT-1 22 Nov 12:47:22 12:50:46 19° 94° (E) 12:54:10 437.475
M-CUBED/EXP-1 PRIME 22 Nov 12:49:32 12:53:12 21° 96° (E) 12:56:53 437.505
ITUPSAT 1 22 Nov 12:56:05 12:59:30 19° 89° (E) 13:02:54 437.325
HO-68 22 Nov 12:58:00 13:01:33 15° 327° (NNW) 13:05:07 435.675
VELOX 1 22 Nov 13:02:45 13:05:24 16° 306° (NW) 13:08:01 145.980
Oscar 19 22 Nov 13:05:21 13:10:28 74° 256° (WSW) 13:15:37 437.125/150
SWISSCUBE 22 Nov 13:08:16 13:12:18 26° 93° (E) 13:16:16 437.505
JAS-2 22 Nov 13:12:26 13:13:48 11° 27° (NNE) 13:15:09 435.910
AISAT 22 Nov 13:27:58 13:28:49 11° 311° (NW) 13:29:40 437.250
KKS-1 22 Nov 13:36:28 13:37:12 10° 84° (E) 13:37:55 437.445
SHINDAISAT 22 Nov 13:37:58 13:38:10 10° 330° (NNW) 13:38:22 437.305
BEESAT 22 Nov 13:39:56 13:44:33 43° 98° (E) 13:49:06 436.000
AO-7 22 Nov 13:40:33 13:47:44 35° 47° (NE) 13:54:57 29.400- 29.500
O/OREOS (USA 219) 22 Nov 13:47:14 13:48:35 11° 27° (NNE) 13:49:56 437.305
ITAMSAT 1 22 Nov 13:49:25 13:54:39 73° 256° (WSW) 13:59:54 435.822/435.867
HORYU 2 22 Nov 13:53:18 13:57:24 38° 65° (ENE) 14:01:31 437.375
CUBEBUG 1 22 Nov 13:54:58 13:56:53 13° 308° (NW) 13:58:46 437.445
SPROUT 22 Nov 13:57:35 14:01:21 30° 297° (WNW) 14:05:05 437.525
Gurwin Techsat 1B 22 Nov 13:58:18 14:03:38 83° 72° (ENE) 14:08:59 435.225
SO-50 22 Nov 13:58:28 14:02:49 33° 240° (WSW) 14:07:11 436.795
TISAT 1 22 Nov 14:00:23 14:03:54 26° 298° (WNW) 14:07:24 437.305
CUSAT 1 22 Nov 14:02:05 14:04:47 87° 103° (ESE) 14:07:25 437.405
DANDE 22 Nov 14:10:29 14:13:17 90° 282° (WNW) 14:15:54 436.750
AUBIESAT-1 22 Nov 14:21:24 14:26:18 82° 293° (WNW) 14:31:13 437.475
M-CUBED/EXP-1 PRIME 22 Nov 14:23:49 14:28:42 74° 294° (WNW) 14:33:38 437.505
YUBILEINY 22 Nov 14:24:06 14:32:54 86° 261° (W) 14:41:36 435.215
ITUPSAT 1 22 Nov 14:33:07 14:37:57 72° 289° (WNW) 14:42:44 437.325
STARS 22 Nov 14:38:14 14:41:59 27° 94° (E) 14:45:43 437.465
SWISSCUBE 22 Nov 14:45:46 14:50:28 53° 292° (WNW) 14:55:07 437.505
Oscar 19 22 Nov 14:48:27 14:50:45 13° 276° (W) 14:53:03 437.125/150
JAS-2 22 Nov 14:50:07 14:56:23 28° 50° (NE) 15:02:41 435.910
KKS-1 22 Nov 15:10:14 15:14:42 71° 103° (ESE) 15:19:07 437.445
BEESAT 22 Nov 15:18:02 15:22:18 32° 298° (WNW) 15:26:33 436.000
O/OREOS (USA 219) 22 Nov 15:25:09 15:29:20 37° 50° (NE) 15:33:29 437.305
HORYU 2 22 Nov 15:30:12 15:34:10 31° 264° (W) 15:38:09 437.375
AO-7 22 Nov 15:31:33 15:39:52 83° 250° (WSW) 15:48:16 29.400- 29.500
ITAMSAT 1 22 Nov 15:32:43 15:35:05 13° 276° (W) 15:37:28 435.822/435.867
Gurwin Techsat 1B 22 Nov 15:40:38 15:44:17 19° 272° (W) 15:47:58 435.225
AUBIESAT-1 22 Nov 15:57:19 16:00:40 19° 312° (NW) 16:04:03 437.475
M-CUBED/EXP-1 PRIME 22 Nov 15:59:54 16:03:04 18° 313° (NW) 16:06:16 437.505
Cubesat XI-IV 22 Nov 16:00:06 16:03:56 20° 53° (NE) 16:07:45 437.490
MaSat-1 22 Nov 16:01:47 16:03:52 18° 114° (ESE) 16:05:50 437.345
ITUPSAT 1 22 Nov 16:12:25 16:15:04 15° 309° (NW) 16:17:42 437.325
STARS 22 Nov 16:14:29 16:18:40 44° 293° (WNW) 16:22:49 437.465
GONETS M04 22 Nov 16:21:39 16:23:56 11° 27° (NNE) 16:26:13
YUBILEINY 22 Nov 16:22:01 16:28:29 24° 285° (WNW) 16:34:56 435.215
SWISSCUBE 22 Nov 16:25:47 16:27:20 11° 313° (NW) 16:28:52 437.505
JAS-2 22 Nov 16:32:46 16:40:27 84° 72° (ENE) 16:48:22 435.910
RS-15 22 Nov 16:38:55 16:48:54 44° 112° (ESE) 16:58:54 29.354- 29.394
CUTE-I 22 Nov 16:41:14 16:46:05 36° 61° (ENE) 16:50:56 437.470
KKS-1 22 Nov 16:47:45 16:50:54 19° 303° (WNW) 16:54:03 437.445
O/OREOS (USA 219) 22 Nov 17:04:38 17:08:45 36° 251° (WSW) 17:12:50 437.305
MOZHAYETS 4 22 Nov 17:23:49 17:28:26 57° 100° (E) 17:33:01
AO-7 22 Nov 17:27:43 17:33:57 23° 273° (W) 17:40:15 29.400- 29.500
MaSat-1 22 Nov 17:35:46 17:38:24 32° 310° (NW) 17:40:51 437.345
Cubesat XI-IV 22 Nov 17:37:59 17:43:23 89° 72° (ENE) 17:48:48 437.490
VERMONT LUNAR 22 Nov 17:54:31 17:55:32 11° 171° (S) 17:56:32 437.305
STRAND 1 22 Nov 17:56:10 17:58:36 13° 84° (E) 18:01:00 437.568
HO-68 22 Nov 18:10:26 18:15:52 24° 45° (NE) 18:21:18 435.675
SHINDAISAT 22 Nov 18:11:51 18:13:04 15° 35° (NE) 18:14:17 437.305
GONETS M04 22 Nov 18:16:51 18:24:37 32° 58° (ENE) 18:32:18
JAS-2 22 Nov 18:19:53 18:26:18 28° 273° (W) 18:32:54 435.910
CUTE-I 22 Nov 18:20:56 18:26:05 46° 261° (W) 18:31:15 437.470
PRISM 22 Nov 18:21:54 18:26:00 44° 99° (E) 18:30:03 437.425
RS-15 22 Nov 18:49:39 19:00:36 76° 319° (NW) 19:11:43 29.354- 29.394
CUBESAT XI-V 22 Nov 18:54:34 18:59:01 40° 97° (E) 19:03:24 437.345
SEEDS 22 Nov 19:00:45 19:03:19 16° 56° (ENE) 19:05:54 437.485
MOZHAYETS 4 22 Nov 19:01:36 19:05:22 25° 300° (WNW) 19:09:07
PHONESAT 2.4 22 Nov 19:05:36 19:07:13 12° 180° (S) 19:08:49 2401.200-2431.200
DOVE 4 22 Nov 19:13:09 19:15:42 15° 56° (NE) 19:18:11 437.250
AIST 1 22 Nov 19:17:22 19:20:03 16° 83° (E) 19:22:44
Cubesat XI-IV 22 Nov 19:20:44 19:24:14 17° 273° (W) 19:27:45 437.490
CANX-2 22 Nov 19:22:15 19:25:50 28° 63° (ENE) 19:29:27 2200.000
AAUSAT CUBESAT 2 22 Nov 19:24:35 19:27:36 20° 59° (ENE) 19:30:38 437.432
VERMONT LUNAR 22 Nov 19:32:00 19:33:02 11° 188° (S) 19:34:05 437.305
STRAND 1 22 Nov 19:33:32 19:38:42 76° 105° (ESE) 19:43:48 437.568
GOMX 1 22 Nov 19:36:26 19:40:27 28° 63° (ENE) 19:44:16 467.674
COMPASS 1 22 Nov 19:36:39 19:40:10 27° 63° (ENE) 19:43:42 437.405
SHINDAISAT 22 Nov 19:42:12 19:43:44 22° 234° (SW) 19:45:15 437.305
BRITE-PL 22 Nov 19:45:33 19:50:15 43° 68° (ENE) 19:54:38 437.365/2234.400
DELFI C3 22 Nov 19:48:54 19:51:29 17° 57° (ENE) 19:54:06 145.870
HO-68 22 Nov 19:55:25 20:02:36 76° 67° (ENE) 20:09:49 435.675
CUTE 1.7 & AOD 2 22 Nov 19:56:47 20:00:53 51° 69° (ENE) 20:05:00 437.475
PRISM 22 Nov 19:57:48 20:01:24 27° 299° (WNW) 20:04:57 437.425
FUNcube-1 22 Nov 20:06:18 20:08:34 14° 55° (NE) 20:10:50 145.935
UKube-1 22 Nov 20:07:38 20:11:21 28° 61° (ENE) 20:15:04 .
GONETS M04 22 Nov 20:13:37 20:22:30 81° 263° (W) 20:31:18
CUBEBUG 2 22 Nov 20:14:07 20:17:17 21° 60° (ENE) 20:20:26 437.445
CINEMA 3 22 Nov 20:14:45 20:18:34 30° 64° (ENE) 20:22:16 145.822/145.860
Oscar 11 22 Nov 20:21:27 20:25:23 36° 65° (ENE) 20:29:21 145.826/435.025
UWE-3 22 Nov 20:21:59 20:25:12 22° 60° (ENE) 20:28:24 435.000/436.395/437.385
BEESAT 3 22 Nov 20:32:00 20:33:21 11° 110° (ESE) 20:34:43 437.485
CUBESAT XI-V 22 Nov 20:32:12 20:36:24 33° 297° (WNW) 20:40:34 437.345
SEEDS 22 Nov 20:34:26 20:38:38 82° 256° (WSW) 20:42:53 437.485
PCSat 22 Nov 20:37:39 20:42:34 36° 115° (ESE) 20:47:30 145.827
DX 1 22 Nov 20:38:49 20:43:04 51° 68° (ENE) 20:47:21 434.975-435.025
ESTCUBE 1 22 Nov 20:41:23 20:43:00 12° 50° (NE) 20:44:37 437.505/2401.250
BEESAT 2 22 Nov 20:43:36 20:45:41 14° 112° (ESE) 20:47:46 435.950
DOVE 4 22 Nov 20:48:19 20:52:57 87° 75° (ENE) 20:57:21 437.250
AIST 1 22 Nov 20:52:46 20:57:10 72° 282° (WNW) 21:01:37
VELOX 1 22 Nov 20:53:09 20:56:56 28° 61° (ENE) 21:00:44 145.980
CANX-2 22 Nov 20:57:40 21:01:40 41° 262° (W) 21:05:42 2200.000
AAUSAT CUBESAT 2 22 Nov 20:58:49 21:02:56 61° 259° (WSW) 21:07:06 437.432
AIST 2 22 Nov 21:02:43 21:04:05 11° 109° (ESE) 21:05:28 435.215
RS-15 22 Nov 21:04:18 21:14:45 47° 350° (N) 21:25:28 29.354- 29.394
ZACube-1 22 Nov 21:04:19 21:08:18 42° 68° (ENE) 21:12:16 437.345
COMPASS 1 22 Nov 21:11:49 21:15:46 41° 262° (W) 21:19:47 437.405
STRAND 1 22 Nov 21:13:30 21:17:24 22° 305° (NW) 21:21:17 437.568
GOMX 1 22 Nov 21:13:51 21:18:28 46° 261° (W) 21:22:49 467.674
HUMSAT D 22 Nov 21:14:59 21:18:46 35° 66° (ENE) 21:22:32 437.325/437.525
AISAT 22 Nov 21:16:33 21:20:47 43° 66° (ENE) 21:25:02 437.250
DELFI C3 22 Nov 21:22:15 21:26:20 74° 257° (WSW) 21:30:27 145.870
BRITE-PL 22 Nov 21:24:28 21:28:54 31° 265° (W) 21:33:05 437.365/2234.400
50 SAT 22 Nov 21:27:54 21:31:40 39° 67° (ENE) 21:35:27 437.505
CUTE 1.7 & AOD 2 22 Nov 21:33:50 21:37:07 22° 269° (W) 21:40:25 437.475
FUNcube-1 22 Nov 21:40:08 21:44:22 89° 73° (ENE) 21:48:34 145.935
UKube-1 22 Nov 21:43:12 21:47:22 44° 261° (W) 21:51:34 .
CUBEBUG 1 22 Nov 21:43:22 21:47:18 31° 63° (ENE) 21:51:14 437.445
HO-68 22 Nov 21:44:59 21:51:01 29° 269° (W) 21:57:06 435.675
SPROUT 22 Nov 21:48:50 21:50:19 12° 52° (NE) 21:51:49 437.525
CUBEBUG 2 22 Nov 21:49:29 21:53:42 58° 259° (W) 21:57:52 437.445
TISAT 1 22 Nov 21:49:42 21:51:42 13° 53° (NE) 21:53:41 437.305
CINEMA 3 22 Nov 21:51:36 21:55:44 38° 263° (W) 21:59:44 145.822/145.860
UWE-3 22 Nov 21:57:19 22:01:29 55° 259° (W) 22:05:37 435.000/436.395/437.385
Oscar 11 22 Nov 21:57:46 22:01:37 32° 265° (W) 22:05:30 145.826/435.025
ANTELSAT 22 Nov 22:00:32 22:03:09 15° 88° (E) 22:05:46 437.575/2403.000
QB50P1 22 Nov 22:04:07 22:05:21 11° 85° (E) 22:06:34 145.935-145.965
BEESAT 3 22 Nov 22:06:42 22:10:49 69° 130° (SE) 22:15:00 437.485
AUBIESAT-1 22 Nov 22:10:35 22:12:10 12° 40° (NE) 22:13:47 437.475
GONETS M04 22 Nov 22:11:40 22:17:58 23° 286° (WNW) 22:24:14
M-CUBED/EXP-1 PRIME 22 Nov 22:12:48 22:14:45 13° 42° (NE) 22:16:45 437.505
SEEDS 22 Nov 22:14:00 22:15:13 11° 275° (W) 22:16:26 437.485
ESTCUBE 1 22 Nov 22:14:31 22:19:00 59° 70° (ENE) 22:23:31 437.505/2401.250
DX 1 22 Nov 22:16:05 22:19:36 23° 267° (W) 22:23:08 434.975-435.025
BEESAT 2 22 Nov 22:19:08 22:23:18 80° 131° (SE) 22:27:32 435.950
PCSat 22 Nov 22:20:31 22:25:50 55° 317° (NW) 22:31:12 145.827
POPSAT HIP 1 22 Nov 22:27:02 22:30:00 18° 90° (E) 22:32:57 437.405
DOVE 4 22 Nov 22:28:55 22:31:19 14° 273° (W) 22:33:40 437.250
VELOX 1 22 Nov 22:29:02 22:33:22 46° 261° (W) 22:37:42 145.980
BUGSAT 1 22 Nov 22:32:26 22:35:10 17° 89° (E) 22:37:52 437.445
AIST 1 22 Nov 22:34:02 22:35:44 12° 304° (NW) 22:37:27
AIST 2 22 Nov 22:37:41 22:41:55 67° 129° (SE) 22:46:13 435.215
ZACube-1 22 Nov 22:41:22 22:44:53 25° 267° (W) 22:48:23 437.345
SWISSCUBE 22 Nov 22:46:39 22:48:30 12° 48° (NE) 22:50:21 437.505
CUSAT 1 22 Nov 22:50:41 22:53:02 15° 65° (ENE) 22:55:44 437.405
HUMSAT D 22 Nov 22:51:00 22:54:39 30° 265° (W) 22:58:19 437.325/437.525
AISAT 22 Nov 22:53:41 22:57:35 29° 266° (W) 23:01:30 437.250
TIGRISAT 22 Nov 22:56:12 23:00:24 45° 99° (E) 23:04:39 435.000
POLYITAN 1 22 Nov 22:57:47 23:01:40 34° 96° (E) 23:05:32 437.675
DANDE 22 Nov 23:00:58 23:03:12 15° 65° (ENE) 23:05:46 436.750
QB50P2 22 Nov 23:01:14 23:05:12 37° 97° (E) 23:09:08 145.880/145.840
50 SAT 22 Nov 23:03:44 23:07:08 26° 266° (W) 23:10:33 437.505
UNISAT 6 22 Nov 23:07:46 23:12:07 59° 101° (ESE) 23:16:31 437.425
DUCHIFAT 1 22 Nov 23:09:36 23:13:39 43° 99° (E) 23:17:40 145.980
BEESAT 22 Nov 23:16:46 23:20:01 19° 54° (NE) 23:23:18 436.000
RS-15 22 Nov 23:18:55 23:29:42 54° 23° (NNE) 23:40:51 29.354- 29.394
CUBEBUG 1 22 Nov 23:19:26 23:23:37 39° 263° (W) 23:27:49 437.445
FUNcube-1 22 Nov 23:19:39 23:21:23 12° 274° (W) 23:23:08 145.935
SPROUT 22 Nov 23:21:20 23:25:37 64° 71° (ENE) 23:29:55 437.525
TISAT 1 22 Nov 23:22:34 23:26:51 76° 73° (ENE) 23:31:08 437.305
NANOSAT C BR1 22 Nov 23:28:20 23:32:34 66° 102° (ESE) 23:36:45 145.865
ANTELSAT 22 Nov 23:36:07 23:40:31 79° 287° (WNW) 23:44:59 437.575/2403.000
QB50P1 22 Nov 23:37:44 23:41:59 81° 104° (ESE) 23:46:13 145.935-145.965
AUBIESAT-1 22 Nov 23:42:09 23:46:09 51° 62° (ENE) 23:50:33 437.475
M-CUBED/EXP-1 PRIME 22 Nov 23:44:50 23:48:52 58° 63° (ENE) 23:53:18 437.505
BEESAT 3 22 Nov 23:45:44 23:49:25 29° 331° (NNW) 23:53:08 437.485
ESTCUBE 1 22 Nov 23:52:47 23:56:16 21° 269° (W) 23:59:46 437.505/2401.250
BEESAT 2 22 Nov 23:58:26 00:02:03 27° 333° (NNW) 00:05:43 435.950
MaSat-1 23 Nov 00:00:40 00:02:18 17° 44° (NE) 00:03:55 437.345
POPSAT HIP 1 23 Nov 00:02:09 00:06:20 61° 289° (WNW) 00:10:29 437.405
PCSat 23 Nov 00:06:10 00:10:25 23° 341° (NNW) 00:14:41 145.827
BUGSAT 1 23 Nov 00:07:01 00:11:08 63° 289° (WNW) 00:15:10 437.445
ITUPSAT 1 23 Nov 00:08:35 00:13:07 42° 65° (ENE) 00:17:40 437.325
AIST 2 23 Nov 00:17:03 00:20:54 31° 331° (NNW) 00:24:47 435.215
SWISSCUBE 23 Nov 00:20:43 00:25:25 57° 69° (ENE) 00:30:10 437.505
CUSAT 1 23 Nov 00:32:32 00:36:22 73° 258° (WSW) 00:41:32 437.405
TIGRISAT 23 Nov 00:33:21 00:37:01 27° 298° (WNW) 00:40:43 435.000
POLYITAN 1 23 Nov 00:33:50 00:37:37 32° 296° (WNW) 00:41:23 437.675
QB50P2 23 Nov 00:37:21 00:41:04 30° 296° (WNW) 00:44:46 145.880/145.840
KKS-1 23 Nov 00:39:15 00:42:40 22° 59° (ENE) 00:46:06 437.445
DANDE 23 Nov 00:43:11 00:46:51 68° 259° (WSW) 00:51:48 436.750
UNISAT 6 23 Nov 00:45:15 00:48:37 22° 300° (WNW) 00:52:01 437.425
DUCHIFAT 1 23 Nov 00:45:51 00:49:23 26° 298° (WNW) 00:52:54 145.980
BEESAT 23 Nov 00:52:29 00:57:18 86° 254° (WSW) 01:02:09 436.000
SPROUT 23 Nov 00:59:09 01:02:09 18° 270° (W) 01:05:10 437.525
TISAT 1 23 Nov 01:00:41 01:03:14 15° 272° (W) 01:05:47 437.305
NANOSAT C BR1 23 Nov 01:05:04 01:08:03 19° 302° (WNW) 01:11:02 145.865
Oscar 19 23 Nov 01:11:06 01:15:22 26° 92° (E) 01:19:38 437.125/150
ANTELSAT 23 Nov 01:14:25 01:16:41 14° 306° (NW) 01:18:57 437.575/2403.000
QB50P1 23 Nov 01:14:44 01:17:23 16° 304° (NW) 01:20:00 145.935-145.965
AUBIESAT-1 23 Nov 01:18:10 01:21:30 24° 263° (W) 01:25:04 437.475
M-CUBED/EXP-1 PRIME 23 Nov 01:21:15 01:24:22 21° 265° (W) 01:27:42 437.505
BEESAT 3 23 Nov 01:26:09 01:28:53 17° 355° (N) 01:31:37 437.485
RS-15 23 Nov 01:31:52 01:42:59 79° 232° (SW) 01:54:35 29.354- 29.394
ISS 23 Nov 01:34:49 01:37:25 22° 148° (SSE) 01:40:02 145.825
MaSat-1 23 Nov 01:35:00 01:36:59 25° 244° (WSW) 01:38:59 437.345
YUBILEINY 23 Nov 01:38:23 01:45:00 25° 76° (ENE) 01:51:36 435.215
BEESAT 2 23 Nov 01:38:54 01:41:38 16° 357° (N) 01:44:22 435.950
POPSAT HIP 1 23 Nov 01:40:23 01:41:25 11° 309° (NW) 01:42:28 437.405
STARS 23 Nov 01:41:11 01:45:27 50° 68° (ENE) 01:49:44 437.465
BUGSAT 1 23 Nov 01:44:49 01:45:50 11° 309° (NW) 01:46:51 437.445
ITUPSAT 1 23 Nov 01:46:49 01:51:08 32° 265° (W) 01:55:30 437.325
PCSat 23 Nov 01:51:57 01:55:45 19° 7° (N) 01:59:34 145.827
ITAMSAT 1 23 Nov 01:56:32 02:00:52 26° 92° (E) 02:05:10 435.822/435.867
AIST 2 23 Nov 01:57:51 02:00:46 17° 354° (N) 02:03:42 435.215
SWISSCUBE 23 Nov 01:59:45 02:03:38 24° 268° (W) 02:07:34 437.505
Gurwin Techsat 1B 23 Nov 02:08:59 02:13:01 22° 89° (E) 02:17:02 435.225
KKS-1 23 Nov 02:14:34 02:18:59 61° 258° (WSW) 02:23:25 437.445
BEESAT 23 Nov 02:33:20 02:35:54 14° 274° (W) 02:38:28 436.000
Oscar 19 23 Nov 02:50:01 02:55:05 59° 292° (WNW) 03:00:09 437.125/150
MOZHAYETS 4 23 Nov 02:56:31 02:59:42 19° 56° (NE) 03:02:53
BEESAT 3 23 Nov 03:05:19 03:08:32 21° 18° (NNE) 03:11:44 437.485
ISS 23 Nov 03:10:25 03:13:40 59° 168° (SSE) 03:16:56 145.825
HORYU 2 23 Nov 03:15:16 03:19:20 33° 96° (E) 03:23:23 437.375
BEESAT 2 23 Nov 03:18:00 03:21:20 22° 20° (NNE) 03:24:39 435.950
STARS 23 Nov 03:18:40 03:22:13 23° 267° (W) 03:25:47 437.465
AO-7 23 Nov 03:26:49 03:33:18 24° 88° (E) 03:39:43 29.400- 29.500
YUBILEINY 23 Nov 03:31:48 03:40:38 87° 99° (E) 03:49:28 435.215
ITAMSAT 1 23 Nov 03:35:37 03:40:44 58° 292° (WNW) 03:45:48 435.822/435.867
PCSat 23 Nov 03:35:53 03:40:48 33° 32° (NNE) 03:45:42 145.827
AIST 2 23 Nov 03:37:30 03:40:51 21° 18° (NNE) 03:44:11 435.215
JAS-2 23 Nov 03:40:13 03:41:47 11° 72° (ENE) 03:43:20 435.910
PRISM 23 Nov 03:45:56 03:47:52 13° 52° (NE) 03:49:49 437.425
